Simultaneous Nadir Overpasses (SNOs) Predictions

Prediction of SNOs between AURA and NPP Satellite Orbit:

Table of predicted SNOs for the next 14.0 days since TLE Epoch: 8/31/2012
Index Date (AURA) Time (AURA) AURA Lat,Lon Date (NPP) Time (NPP) NPP Lat,Lon Distance(km) Time Diff (sec)
1 09/02/2012 12:14:03 79.70,-105.46 09/02/2012 12:13:19 79.70,-105.47 0.22 44
2 09/02/2012 13:03:24 -79.92, 63.89 09/02/2012 13:03:57 -79.92, 63.90 0.32 33
3 09/05/2012 04:30:24 79.82, 11.35 09/05/2012 04:30:08 79.83, 11.48 2.76 16
4 09/05/2012 05:19:48 -79.94, 179.88 09/05/2012 05:20:50 -79.93, 179.73 3.12 62
5 09/07/2012 19:57:27 -79.68, -41.44 09/07/2012 19:56:22 -79.69, -41.37 1.57 65
6 09/07/2012 20:46:48 79.85, 127.50 09/07/2012 20:47:01 79.86, 127.54 0.85 13
7 09/10/2012 12:13:50 -79.74, 74.88 09/10/2012 12:13:14 -79.75, 74.93 1.27 36
8 09/10/2012 13:03:10 79.94,-115.89 09/10/2012 13:03:52 79.94,-115.87 0.46 42
9 09/13/2012 04:30:11 -79.85,-168.36 09/13/2012 04:30:04 -79.86,-168.23 2.55 7




NCC Satellite Simultaneous Nadir Overpasses (SNOs) Prediction Service
